CZ-2C DEB

基本信息
目录编号:
38863
目录名称:
CZ-2C DEB
国际标识:
2012-056D
轨道中心:
EARTH
物体状态:
在轨
发射日期:
2012-10-14 UTC
轨道信息
数据来源: 国际轨道数据
星历时间: 2026-07-14T04:03:52+0800
半长轴: 6869.886km
偏心率: 0.0006856
轨道倾角: 97.545°
近地点辐角: 329.795°
升交点赤经: 264.729°
平近点角: 30.289°
近地点: 487.039km
远地点: 496.459km
周期: 94.446分钟
每日圈数: 15.246793
详细信息
发射场:
TSC
轨道高度:
LEO
数据来源:
AOE Integration Group
参考系:
TEME
时间系统:
UTC
历元类型:
SGP4
2D轨道图
3D轨道图
轨道高度分析图
轨道倾角分析图
轨道综合分析图
查看轨道综合分析图